Teterboro, NJ

6:52 AM EDT on September 21, 2017 (GMT -0400)
Teterboro

Weather History for KTEB - January, 2012

Change the Weather History Date:

Friday, January 27, 2012

  Actual Average Record
Temperature  
Mean Temperature 48 °F -  
Max Temperature 57 °F 36 °F 62 °F (2002)
Min Temperature 39 °F 22 °F 8 °F (2003)
Degree Days  
Heating Degree Days 17    
Moisture  
Dew Point 43 °F    
Average Humidity 89    
Maximum Humidity 100    
Minimum Humidity 52    
Precipitation  
Precipitation 0.36 in - - ()
Sea Level Pressure  
Sea Level Pressure 29.55 in    
Wind  
Wind Speed 5 mph (NW)    
Max Wind Speed 21 mph    
Max Gust Speed 37 mph    
Visibility 4 miles    
Events Fog , Rain    
Averages and records for this station are not official NWS values.
T = Trace of Precipitation, MM = Missing Value Source: NWS Daily Summary

Daily Weather History Graph

Daily Weather History Graph

Search for Another Location

Airport or City:

Trip Planner

Search our weather history database for the weather conditions in past years. The results will help you decide how hot, cold, wet, or windy it might be!

Date:

Astronomy

Jan. 27, 2012 Rise Set
Actual Time 7:11 AM EST 5:06 PM EST
Civil Twilight 6:42 AM EST 5:36 PM EST
Nautical Twilight 6:08 AM EST 6:09 PM EST
Astronomical Twilight 5:36 AM EST 6:41 PM EST
Moon 9:02 AM EST (1/27) 9:57 PM EST (1/27)
Length of Visible Light 10h 54m
Length of Day
9h 55m
Waxing Crescent, 19% of the Moon is Illuminated
Jan 27
Waxing Crescent
Jan 30
First Quarter
Feb 7
Full
Feb 14
Last Quarter
Feb 21
New

Hourly Weather History & Observations

Time (EST) Temp. Windchill Dew Point Humidity Pressure Visibility Wind Dir Wind Speed Gust Speed Precip Events Conditions
12:51 AM 39.0 °F 35.7 °F 37.9 °F 96% 29.78 in 3.0 mi North 4.6 mph - N/A   Overcast
1:18 AM 39.2 °F 35.9 °F 37.4 °F 93% 29.76 in 5.0 mi NNW 4.6 mph - N/A   Overcast
1:34 AM 39.2 °F 35.9 °F 39.2 °F 100% 29.75 in 2.0 mi NNW 4.6 mph - N/A   Overcast
1:51 AM 39.0 °F 36.8 °F 39.0 °F 100% 29.75 in 2.0 mi North 3.5 mph - N/A   Overcast
2:51 AM 39.0 °F 36.8 °F 39.0 °F 100% 29.71 in 1.0 mi North 3.5 mph - 0.00 in   Overcast
3:32 AM 39.2 °F 37.0 °F 39.2 °F 100% 29.68 in 0.5 mi North 3.5 mph - N/A Fog Fog
3:36 AM 39.2 °F 35.0 °F 39.2 °F 100% 29.67 in 0.2 mi North 5.8 mph - N/A Fog Fog
3:51 AM 39.9 °F 36.7 °F 39.9 °F 100% 29.67 in 0.2 mi NNW 4.6 mph - N/A Fog Fog
4:51 AM 39.2 °F 35.0 °F 39.2 °F 100% 29.62 in 0.2 mi North 5.8 mph - N/A Fog Fog
5:51 AM 41.0 °F 39.0 °F 41.0 °F 100% 29.58 in 0.2 mi NNW 3.5 mph - 0.00 in Fog , Rain Light Rain
6:51 AM 42.1 °F - 42.1 °F 100% 29.55 in 0.2 mi Calm Calm - 0.01 in Fog , Rain Rain
7:05 AM 42.8 °F 38.0 °F 42.8 °F 100% 29.55 in 1.0 mi NW 8.1 mph - 0.01 in Rain Light Rain
7:51 AM 44.1 °F - 44.1 °F 100% 29.52 in 1.0 mi Calm Calm - 0.04 in Rain Light Rain
8:48 AM 46.4 °F - 46.4 °F 100% 29.48 in 1.2 mi Calm Calm - 0.09 in Rain Rain
8:51 AM 46.0 °F - 46.0 °F 100% 29.48 in 1.0 mi Calm Calm - 0.09 in Rain Rain
9:12 AM 46.4 °F - 46.4 °F 100% 29.47 in 1.2 mi Calm Calm - 0.04 in Rain Rain
9:51 AM 46.9 °F - 46.9 °F 100% 29.44 in 2.0 mi North 3.5 mph - 0.06 in Rain Light Rain
9:54 AM 48.2 °F - 48.2 °F 100% 29.43 in 3.0 mi Calm Calm - 0.00 in Rain Light Rain
10:18 AM 50.0 °F - 48.2 °F 94% 29.43 in 2.0 mi Calm Calm - N/A Rain Rain
10:25 AM 48.2 °F - 48.2 °F 100% 29.45 in 1.5 mi NW 18.4 mph 24.2 mph 0.03 in Rain Rain
10:43 AM 48.2 °F - 48.2 °F 100% 29.44 in 2.0 mi Calm Calm - N/A Rain Light Rain
10:51 AM 50.0 °F - 48.9 °F 96% 29.42 in 4.0 mi East 4.6 mph - 0.15 in Rain Light Rain
11:51 AM 50.0 °F - 50.0 °F 100% 29.39 in 7.0 mi Calm Calm - N/A Rain Light Rain
12:14 PM 51.8 °F - 51.8 °F 100% 29.38 in 7.0 mi NW 8.1 mph - 0.00 in   Overcast
12:51 PM 53.1 °F - 52.0 °F 96% 29.35 in 4.0 mi Calm Calm - 0.00 in   Overcast
1:34 PM 53.6 °F - 53.6 °F 100% 29.33 in 4.0 mi Calm Calm - N/A   Mostly Cloudy
1:44 PM 53.6 °F - 53.6 °F 100% 29.34 in 4.0 mi Calm Calm - N/A   Mostly Cloudy
1:51 PM 55.0 °F - 53.1 °F 93% 29.33 in 5.0 mi Calm Calm - N/A   Mostly Cloudy
2:51 PM 57.9 °F - 53.1 °F 84% 29.35 in 10.0 mi West 11.5 mph 24.2 mph N/A   Overcast
3:51 PM 55.9 °F - 46.0 °F 69% 29.37 in 10.0 mi West 16.1 mph 26.5 mph 0.01 in   Overcast
4:51 PM 53.1 °F - 41.0 °F 64% 29.45 in 10.0 mi West 11.5 mph 21.9 mph N/A   Overcast
5:51 PM 51.1 °F - 34.0 °F 52% 29.53 in 10.0 mi WNW 19.6 mph 33.4 mph N/A   Mostly Cloudy
6:51 PM 48.0 °F - 34.0 °F 58% 29.60 in 10.0 mi NW 12.7 mph 23.0 mph N/A   Partly Cloudy
7:51 PM 48.0 °F - 33.1 °F 56% 29.65 in 10.0 mi WNW 17.3 mph 36.8 mph N/A   Clear
8:51 PM 46.0 °F 38.8 °F 32.0 °F 58% 29.70 in 10.0 mi WNW 18.4 mph 26.5 mph N/A   Scattered Clouds
9:51 PM 45.0 °F 36.9 °F 30.9 °F 58% 29.76 in 10.0 mi WNW 20.7 mph 28.8 mph N/A   Scattered Clouds
10:51 PM 45.0 °F 36.9 °F 30.0 °F 56% 29.80 in 10.0 mi NW 20.7 mph 34.5 mph N/A   Overcast
11:51 PM 44.1 °F 36.2 °F 30.0 °F 58% 29.85 in 10.0 mi WNW 18.4 mph 24.2 mph N/A   Overcast